Location: Unspecified
(42.7170°S, 0.0000°E)
Time: 04:51:46
(UTC+00:00)

N. Korean satellite - Pass Details

Date: 29 May 2019
Orbit: 455 x 510 km, 97.2° (Epoch: 19 June)

Event Time Altitude Azimuth Distance (km) Brightness Sun altitude
Exits shadow 19:23:28 - 209° (SSW) 1,896 9.8 -30.1°
Reaches altitude 10° 19:24:09 10° 218° (SW) 1,746 9.7 -30.2°
Maximum altitude 19:25:51 13° 245° (WSW) 1,575 9.8 -30.5°
Drops below altitude 10° 19:27:34 10° 272° (W) 1,744 10.3 -30.8°
Sets 19:30:39 0° 300° (WNW) 2,625 11.1 -31.4°
